EW7349 Weather Reports


time (UTC)temp
C
wind
direction
speed
KPH
gust
KPH
rain 1hr
cm
rain 24hr
cm
rain mn
cm
humidity
%
barometer
mb
20260509084224 12 302 1.6 11.3 0.00 0.00 0.00 66 1011.3
20260509083726 12 126 1.6 11.3 0.00 0.00 0.00 65 1011.3
20260509083223 12 244 1.6 6.4 0.00 0.00 0.00 66 1011.4
20260509082724 12 207 1.6 6.4 0.00 0.00 0.00 66 1011.5
20260509082223 12 196 1.6 4.8 0.00 0.00 0.00 66 1011.5
20260509081724 12 170 1.6 4.8 0.00 0.00 0.00 67 1011.6
20260509081222 12 259 1.6 4.8 0.00 0.00 0.00 65 1011.5
20260509080722 12 155 1.6 4.8 0.00 0.00 0.00 66 1011.6
20260509080224 12 45 1.6 4.8 0.00 0.00 0.00 66 1011.7
20260509075719 12 348 1.6 4.8 0.00 0.00 0.00 66 1011.8
20260509075444 12 257 1.6 4.8 0.00 0.00 0.00 66 1011.9
20260509074942 12 123 0.0 4.8 0.00 0.00 0.00 67 1011.9
20260509074218 12 211 0.0 3.2 0.00 0.00 0.00 66 1011.8
20260509073719 12 242 1.6 6.4 0.00 0.00 0.00 66 1011.9
20260509073218 12 144 1.6 6.4 0.00 0.00 0.00 66 1011.9
20260509072719 12 254 0.0 3.2 0.00 0.00 0.00 66 1011.9
20260509072220 12 284 0.0 4.8 0.00 0.00 0.00 67 1011.9
20260509071720 12 221 1.6 6.4 0.00 0.00 0.00 66 1012.0
20260509071213 12 138 1.6 6.4 0.00 0.00 0.00 66 1011.9
20260509070932 12 117 0.0 3.2 0.00 0.00 0.00 67 1012.0
20260509070204 12 72 0.0 3.2 0.00 0.00 0.00 67 1011.9
20260509065702 12 72 0.0 3.2 0.00 0.00 0.00 67 1011.8
20260509065656 12 130 0.0 3.2 0.00 0.00 0.00 67 1011.8
20260509064701 12 205 0.0 1.6 0.00 0.00 0.00 66 1011.8
20260509064159 12 205 0.0 1.6 0.00 0.00 0.00 67 1011.8
20260509063924 12 205 0.0 3.2 0.00 0.00 0.00 66 1011.9
20260509063156 12 205 0.0 3.2 0.00 0.00 0.00 65 1012.0
20260509062654 12 276 0.0 1.6 0.00 0.00 0.00 65 1012.0
20260509062417 12 276 0.0 1.6 0.00 0.00 0.00 64 1012.1
20260509061650 12 210 0.0 1.6 0.00 0.00 0.00 64 1012.1
20260509061149 12 240 0.0 3.2 0.00 0.00 0.00 63 1012.1
20260509060648 12 244 0.0 3.2 0.00 0.00 0.00 63 1012.1
20260509060150 12 279 1.6 4.8 0.00 0.00 0.00 63 1012.1
20260509055905 12 142 1.6 4.8 0.00 0.00 0.00 63 1012.1
20260509055147 12 130 0.0 4.8 0.00 0.00 0.00 63 1012.1
20260509054643 13 227 0.0 4.8 0.00 0.00 0.00 63 1012.0
20260509054147 13 229 0.0 4.8 0.00 0.00 0.00 63 1012.0
20260509053642 13 241 0.0 4.8 0.00 0.00 0.00 62 1012.0
20260509053147 13 256 0.0 3.2 0.00 0.00 0.00 62 1012.1
20260509052639 13 212 0.0 3.2 0.00 0.00 0.00 61 1012.1
20260509052132 13 178 0.0 3.2 0.00 0.00 0.00 62 1012.1
20260509051626 13 194 0.0 1.6 0.00 0.00 0.00 61 1012.1
20260509051345 13 209 0.0 3.2 0.00 0.00 0.00 62 1012.2
20260509050614 13 209 0.0 4.8 0.00 0.00 0.00 60 1012.2
20260509050107 13 146 0.0 4.8 0.00 0.00 0.00 60 1012.0
20260509045602 13 192 0.0 4.8 0.00 0.00 0.00 60 1012.0
20260509045056 13 184 0.0 3.2 0.00 0.00 0.00 60 1012.0
20260509044815 13 180 0.0 3.2 0.00 0.00 0.00 60 1012.0
20260509044044 13 248 1.6 4.8 0.00 0.00 0.00 60 1012.0
20260509043803 13 202 1.6 6.4 0.00 0.00 0.00 59 1012.0
20260509043256 13 125 1.6 8.0 0.00 0.00 0.00 60 1012.0
20260509042526 13 176 1.6 8.0 0.00 0.00 0.00 58 1012.1
20260509042020 13 154 1.6 9.7 0.00 0.00 0.00 58 1012.0
20260509041514 13 217 1.6 9.7 0.00 0.00 0.00 58 1012.0
20260509041009 13 244 1.6 6.4 0.00 0.00 0.00 58 1012.1
20260509040722 13 165 0.0 4.8 0.00 0.00 0.00 60 1012.1
20260509035956 13 157 0.0 4.8 0.00 0.00 0.00 60 1012.1
20260509035449 13 183 1.6 6.4 0.00 0.00 0.00 60 1012.1
20260509034943 13 238 1.6 6.4 0.00 0.00 0.00 59 1012.2
20260509034700 13 219 0.0 4.8 0.00 0.00 0.00 61 1012.2
20260509033930 13 257 0.0 4.8 0.00 0.00 0.00 60 1012.3
20260509033914 13 201 0.0 6.4 0.00 0.00 0.00 60 1012.3
20260509032919 14 224 0.0 6.4 0.00 0.00 0.00 60 1012.4
20260509032414 14 229 0.0 3.2 0.00 0.00 0.00 60 1012.4
20260509031906 14 228 0.0 3.2 0.00 0.00 0.00 61 1012.4
20260509031400 14 38 0.0 3.2 0.00 0.00 0.00 60 1012.4
20260509030854 14 244 0.0 1.6 0.00 0.00 0.00 59 1012.4
20260509030349 14 202 0.0 3.2 0.00 0.00 0.00 60 1012.4
20260509025841 14 206 1.6 6.4 0.00 0.00 0.00 59 1012.4
20260509025336 14 246 0.0 6.4 0.00 0.00 0.00 58 1012.5
20260509024829 14 263 0.0 4.8 0.00 0.00 0.00 61 1012.5
20260509024324 14 18 0.0 1.6 0.00 0.00 0.00 60 1012.5
20260509023817 14 331 0.0 1.6 0.00 0.00 0.00 60 1012.5
20260509023311 15 260 0.0 3.2 0.00 0.00 0.00 59 1012.4
20260509022805 15 263 0.0 3.2 0.00 0.00 0.00 61 1012.4
20260509022258 15 16 0.0 1.6 0.00 0.00 0.00 61 1012.4
20260509022017 15 15 0.0 1.6 0.00 0.00 0.00 59 1012.4
20260509021246 15 288 0.0 1.6 0.00 0.00 0.00 59 1012.4
20260509020740 15 288 0.0 1.6 0.00 0.00 0.00 58 1012.3
20260509020235 15 288 0.0 1.6 0.00 0.00 0.00 56 1012.3
20260509015729 15 297 0.0 1.6 0.00 0.00 0.00 57 1012.3
20260509015222 15 295 0.0 1.6 0.00 0.00 0.00 57 1012.2
20260509014718 15 81 0.0 1.6 0.00 0.00 0.00 56 1012.2
20260509014210 15 91 0.0 0.0 0.00 0.00 0.00 55 1012.2
20260509013704 15 91 0.0 0.0 0.00 0.00 0.00 56 1012.2
20260509013159 16 91 0.0 0.0 0.00 0.00 0.00 56 1012.2
20260509012653 16 91 0.0 1.6 0.00 0.00 0.00 56 1012.2
20260509012147 16 91 0.0 3.2 0.00 0.00 0.00 56 1012.1
20260509011641 16 86 0.0 3.2 0.00 0.00 0.00 54 1012.1
20260509011401 16 183 0.0 1.6 0.00 0.00 0.00 56 1012.1
20260509010628 16 187 0.0 4.8 0.00 0.00 0.00 54 1012.0
20260509010122 16 188 0.0 4.8 0.00 0.00 0.00 53 1011.9
20260509005617 16 333 0.0 6.4 0.00 0.00 0.00 55 1011.9
20260509005332 16 231 0.0 6.4 0.00 0.00 0.00 53 1011.9
20260509004605 17 89 0.0 4.8 0.00 0.00 0.00 54 1011.8
20260509004058 17 177 0.0 1.6 0.00 0.00 0.00 55 1011.8
20260509003553 17 185 0.0 1.6 0.00 0.00 0.00 52 1011.7
20260509003046 17 217 0.0 1.6 0.00 0.00 0.00 53 1011.7
20260509002542 18 217 0.0 3.2 0.00 0.00 0.00 50 1011.7
20260509002035 18 225 0.0 3.2 0.00 0.00 0.00 51 1011.7
20260509001528 18 145 0.0 0.0 0.00 0.00 0.00 49 1011.6
20260509001023 18 145 0.0 0.0 0.00 0.00 0.00 48 1011.6
20260509000518 18 145 0.0 0.0 0.00 0.00 0.00 47 1011.6
20260509000234 19 145 0.0 0.0 0.00 0.00 0.00 47 1011.6
20260508235505 19 145 0.0 0.0 0.00 0.00 0.00 47 1011.6
20260508234958 19 145 0.0 1.6 0.00 0.00 0.00 45 1011.4
20260508234452 20 145 0.0 1.6 0.00 0.00 0.00 45 1011.4
20260508233947 20 130 0.0 0.0 0.00 0.00 0.00 45 1011.4
20260508233441 20 130 0.0 0.0 0.00 0.00 0.00 45 1011.4
20260508232935 20 130 0.0 0.0 0.00 0.00 0.00 46 1011.4
20260508232428 20 130 0.0 1.6 0.00 0.00 0.00 44 1011.4
20260508231922 20 130 0.0 1.6 0.00 0.00 0.00 43 1011.4
20260508231416 20 311 0.0 1.6 0.00 0.00 0.00 42 1011.3
20260508230912 20 253 0.0 4.8 0.00 0.00 0.00 43 1011.3
20260508230634 20 253 1.6 4.8 0.00 0.00 0.00 43 1011.1
20260508225859 20 126 1.6 6.4 0.00 0.00 0.00 42 1011.1
20260508225619 20 207 1.6 6.4 0.00 0.00 0.00 39 1011.1
20260508224846 20 98 1.6 6.4 0.00 0.00 0.00 39 1011.1
20260508224605 20 246 1.6 6.4 0.00 0.00 0.00 39 1011.0
20260508223836 20 245 1.6 4.8 0.00 0.00 0.00 37 1011.1
20260508223328 20 267 3.2 9.7 0.00 0.00 0.00 36 1011.0
20260508222823 20 138 3.2 12.9 0.00 0.00 0.00 36 1011.1
20260508222318 20 244 3.2 12.9 0.00 0.00 0.00 37 1011.1
20260508221812 20 250 1.6 4.8 0.00 0.00 0.00 39 1011.1
20260508221304 20 73 1.6 4.8 0.00 0.00 0.00 44 1011.1
20260508220758 20 22 1.6 4.8 0.00 0.00 0.00 38 1011.1
20260508220252 21 114 1.6 3.2 0.00 0.00 0.00 40 1011.1
20260508215747 21 217 1.6 6.4 0.00 0.00 0.00 40 1011.2
20260508215242 21 130 1.6 6.4 0.00 0.00 0.00 38 1011.3
20260508214742 20 180 1.6 4.8 0.00 0.00 0.00 39 1011.3
20260508214242 20 131 1.6 9.7 0.00 0.00 0.00 37 1011.3
20260508213740 21 82 1.6 9.7 0.00 0.00 0.00 38 1011.3
20260508213239 21 211 1.6 8.0 0.00 0.00 0.00 35 1011.3
20260508212738 21 227 1.6 9.7 0.00 0.00 0.00 35 1011.3
20260508212238 21 242 1.6 9.7 0.00 0.00 0.00 35 1011.3
20260508211739 21 58 1.6 4.8 0.00 0.00 0.00 36 1011.3
20260508211236 21 186 1.6 6.4 0.00 0.00 0.00 34 1011.2
20260508210737 21 136 3.2 8.0 0.00 0.00 0.00 35 1011.3
20260508210234 22 124 3.2 8.0 0.00 0.00 0.00 35 1011.4
20260508205735 21 292 1.6 8.0 0.00 0.00 0.00 32 1011.5
20260508205233 22 232 1.6 9.7 0.00 0.00 0.00 31 1011.4
20260508204957 22 246 3.2 9.7 0.00 0.00 0.00 32 1011.4
20260508204230 22 286 3.2 12.9 0.00 0.00 0.00 30 1011.4
20260508203733 22 115 3.2 12.9 0.00 0.00 0.00 31 1011.4
20260508203231 22 198 3.2 12.9 0.00 0.00 0.00 30 1011.5
20260508202730 23 57 1.6 12.9 0.00 0.00 0.00 35 1011.6
20260508202231 23 281 1.6 11.3 0.00 0.00 0.00 30 1011.6
20260508201730 22 244 3.2 11.3 0.00 0.00 0.00 31 1011.5
20260508201231 23 57 3.2 8.0 0.00 0.00 0.00 31 1011.6
20260508200730 22 281 3.2 9.7 0.00 0.00 0.00 35 1011.7
20260508200231 23 229 1.6 9.7 0.00 0.00 0.00 30 1011.8
20260508195726 23 282 1.6 9.7 0.00 0.00 0.00 30 1011.9
20260508195227 23 139 3.2 9.7 0.00 0.00 0.00 30 1012.0
20260508194727 22 63 3.2 12.9 0.00 0.00 0.00 31 1012.0
20260508194452 22 221 3.2 12.9 0.00 0.00 0.00 31 1012.2
20260508193946 22 62 3.2 9.7 0.00 0.00 0.00 33 1012.2
20260508193226 23 62 3.2 12.9 0.00 0.00 0.00 34 1012.2
20260508192725 23 219 3.2 12.9 0.00 0.00 0.00 31 1012.4
20260508192226 22 40 3.2 14.5 0.00 0.00 0.00 33 1012.4
20260508191947 22 355 3.2 14.5 0.00 0.00 0.00 30 1012.4
20260508191226 23 325 3.2 14.5 0.00 0.00 0.00 30 1012.4
20260508190728 23 133 1.6 8.0 0.00 0.00 0.00 34 1012.5
20260508190715 22 303 3.2 12.9 0.00 0.00 0.00 33 1012.6
20260508185726 22 282 3.2 12.9 0.00 0.00 0.00 31 1012.8
20260508185226 22 231 3.2 12.9 0.00 0.00 0.00 33 1012.8
20260508184725 22 272 3.2 12.9 0.00 0.00 0.00 33 1013.0
20260508184221 22 274 3.2 14.5 0.00 0.00 0.00 32 1013.2
20260508183723 22 241 3.2 14.5 0.00 0.00 0.00 33 1013.4
20260508183219 22 276 3.2 14.5 0.00 0.00 0.00 36 1013.5
20260508182943 22 259 3.2 11.3 0.00 0.00 0.00 35 1013.4
20260508182221 22 52 1.6 11.3 0.00 0.00 0.00 34 1013.4
20260508181720 22 230 1.6 9.7 0.00 0.00 0.00 34 1013.2
20260508181221 22 238 3.2 12.9 0.00 0.00 0.00 36 1013.5
20260508180720 22 73 3.2 12.9 0.00 0.00 0.00 34 1013.6
20260508180215 21 147 3.2 11.3 0.00 0.00 0.00 36 1013.7
20260508175716 21 147 3.2 11.3 0.00 0.00 0.00 36 1013.8
20260508175218 22 289 3.2 11.3 0.00 0.00 0.00 37 1013.9
20260508174715 21 115 4.8 16.1 0.00 0.00 0.00 37 1013.8
20260508174212 21 202 4.8 16.1 0.00 0.00 0.00 37 1014.0
20260508173711 22 317 3.2 9.7 0.00 0.00 0.00 34 1013.9
20260508173209 21 46 1.6 11.3 0.00 0.00 0.00 37 1013.9
20260508172708 21 209 1.6 11.3 0.00 0.00 0.00 35 1014.0
20260508172207 22 153 3.2 12.9 0.00 0.00 0.00 37 1014.0
20260508171709 21 211 3.2 12.9 0.00 0.00 0.00 36 1014.1
20260508171208 20 204 3.2 12.9 0.00 0.00 0.00 37 1014.2
20260508170705 21 304 3.2 12.9 0.00 0.00 0.00 38 1014.2
20260508170207 20 219 3.2 12.9 0.00 0.00 0.00 34 1014.3
20260508165704 20 310 3.2 14.5 0.00 0.00 0.00 38 1014.3
20260508165205 20 325 3.2 14.5 0.00 0.00 0.00 37 1014.5
20260508164705 20 248 3.2 9.7 0.00 0.00 0.00 37 1014.4
20260508164203 20 17 3.2 14.5 0.00 0.00 0.00 37 1014.7
20260508163923 20 257 3.2 14.5 0.00 0.00 0.00 37 1014.6
20260508163204 20 340 3.2 12.9 0.00 0.00 0.00 38 1014.8
20260508162658 19 304 3.2 12.9 0.00 0.00 0.00 40 1014.9
20260508162422 19 25 4.8 12.9 0.00 0.00 0.00 39 1015.0
20260508161645 19 265 3.2 12.9 0.00 0.00 0.00 40 1015.0
20260508161139 18 213 3.2 9.7 0.00 0.00 0.00 43 1015.1
20260508160634 19 0 3.2 12.9 0.00 0.00 0.00 39 1015.1
20260508160128 18 53 4.8 12.9 0.00 0.00 0.00 40 1015.3
20260508155622 18 196 3.2 12.9 0.00 0.00 0.00 41 1015.2
20260508155603 18 331 3.2 12.9 0.00 0.00 0.00 40 1015.3
20260508154611 18 299 3.2 8.0 0.00 0.00 0.00 40 1015.3
20260508154106 18 355 3.2 9.7 0.00 0.00 0.00 42 1015.5
20260508153558 18 5 3.2 12.9 0.00 0.00 0.00 40 1015.4
20260508153052 18 275 3.2 12.9 0.00 0.00 0.00 42 1015.5
20260508152547 17 42 3.2 12.9 0.00 0.00 0.00 45 1015.5
20260508152040 17 252 4.8 12.9 0.00 0.00 0.00 43 1015.6
20260508151535 17 67 3.2 12.9 0.00 0.00 0.00 43 1015.5
20260508151029 17 135 1.6 11.3 0.00 0.00 0.00 47 1015.6
20260508150522 16 306 3.2 11.3 0.00 0.00 0.00 46 1015.6
20260508150017 16 241 3.2 6.4 0.00 0.00 0.00 47 1015.6
20260508145518 16 252 1.6 6.4 0.00 0.00 0.00 45 1015.8
20260508145018 16 271 1.6 4.8 0.00 0.00 0.00 48 1015.8
20260508144517 15 175 3.2 6.4 0.00 0.00 0.00 48 1015.8
20260508144018 15 255 3.2 9.7 0.00 0.00 0.00 49 1015.9
20260508143518 15 39 3.2 9.7 0.00 0.00 0.00 46 1015.9
20260508143020 15 225 1.6 6.4 0.00 0.00 0.00 53 1015.9
20260508142517 15 227 1.6 6.4 0.00 0.00 0.00 52 1015.8
20260508142014 15 192 1.6 4.8 0.00 0.00 0.00 50 1015.8
20260508141720 14 0 0.0 6.4 0.00 0.00 0.00 53 1016.0
20260508141608 15 229 1.6 6.4 0.00 0.00 0.00 51 1015.9
20260508140510 13 248 0.0 6.4 0.00 0.00 0.00 57 1016.0
20260508140010 13 141 1.6 6.4 0.00 0.00 0.00 57 1016.0
20260508135508 13 183 1.6 8.0 0.00 0.00 0.00 57 1016.0
20260508135007 12 33 1.6 8.0 0.00 0.00 0.00 59 1016.0
20260508134725 12 65 1.6 6.4 0.00 0.00 0.00 61 1016.0
20260508134229 12 61 1.6 6.4 0.00 0.00 0.00 61 1016.1
20260508133508 11 294 1.6 6.4 0.00 0.00 0.00 65 1016.1
20260508133009 11 238 1.6 6.4 0.00 0.00 0.00 65 1016.2
20260508132505 11 177 1.6 6.4 0.00 0.00 0.00 68 1016.2
20260508131958 11 216 1.6 6.4 0.00 0.00 0.00 71 1016.2
20260508131723 10 238 1.6 6.4 0.00 0.00 0.00 71 1016.2
20260508130946 10 317 0.0 1.6 0.00 0.03 0.00 75 1016.1
20260508130440 10 272 0.0 3.2 0.00 0.03 0.00 76 1016.2
20260508130202 10 287 0.0 3.2 0.00 0.03 0.00 77 1016.3
20260508125648 9 227 0.0 3.2 0.00 0.03 0.00 79 1016.3
20260508124921 9 242 0.0 3.2 0.00 0.03 0.00 79 1016.3
20260508124415 8 325 0.0 3.2 0.00 0.03 0.00 80 1016.2
20260508123910 8 306 1.6 6.4 0.00 0.03 0.00 81 1016.3
20260508123403 8 346 1.6 6.4 0.00 0.03 0.00 84 1016.2
20260508122858 7 38 1.6 4.8 0.00 0.03 0.00 86 1016.1
20260508122351 7 307 0.0 3.2 0.00 0.03 0.00 88 1016.1
20260508121845 7 279 0.0 1.6 0.00 0.03 0.00 89 1016.1
20260508121339 7 286 0.0 3.2 0.00 0.03 0.00 89 1016.0
20260508120833 7 274 0.0 3.2 0.00 0.03 0.00 89 1016.0
20260508120327 6 355 0.0 3.2 0.00 0.03 0.00 90 1016.0
20260508115823 6 355 0.0 0.0 0.00 0.03 0.00 89 1016.0
20260508115318 6 355 0.0 0.0 0.00 0.03 0.00 88 1015.9
20260508114819 6 355 0.0 0.0 0.00 0.03 0.00 88 1015.7
20260508114805 6 355 0.0 0.0 0.00 0.03 0.00 87 1015.7
20260508114302 6 355 0.0 0.0 0.00 0.03 0.00 87 1015.8
20260508113316 6 355 0.0 0.0 0.00 0.03 0.00 86 1015.8
20260508112813 6 355 0.0 0.0 0.00 0.03 0.00 86 1015.7
20260508112313 6 355 0.0 0.0 0.00 0.03 0.00 86 1015.6
20260508111809 6 355 0.0 0.0 0.00 0.03 0.00 86 1015.6
20260508111309 5 355 0.0 0.0 0.00 0.03 0.00 85 1015.5
20260508110806 5 355 0.0 0.0 0.00 0.03 0.00 85 1015.3
20260508110306 5 355 0.0 0.0 0.00 0.03 0.00 85 1015.2
20260508105805 5 355 0.0 0.0 0.00 0.03 0.00 85 1015.2
20260508105306 5 355 0.0 0.0 0.00 0.03 0.00 85 1015.1
20260508104806 5 355 0.0 0.0 0.00 0.03 0.00 84 1014.9
20260508104305 5 355 0.0 0.0 0.00 0.03 0.00 84 1014.9
20260508103806 6 355 0.0 0.0 0.00 0.03 0.00 84 1014.9
20260508103307 6 355 0.0 0.0 0.00 0.03 0.00 83 1014.8
20260508102806 6 355 0.0 0.0 0.00 0.03 0.00 83 1014.7
20260508102307 6 355 0.0 0.0 0.00 0.03 0.00 83 1014.7
20260508101806 6 355 0.0 0.0 0.00 0.03 0.00 82 1014.6
20260508101304 6 355 0.0 0.0 0.00 0.03 0.00 82 1014.4
20260508100806 6 355 0.0 0.0 0.00 0.03 0.00 82 1014.3
20260508100527 6 355 0.0 0.0 0.00 0.03 0.00 81 1014.2
20260508100032 6 355 0.0 0.0 0.00 0.03 0.00 81 1014.1
20260508095306 6 355 0.0 0.0 0.00 0.03 0.00 81 1014.2
20260508094806 6 355 0.0 0.0 0.00 0.03 0.00 81 1014.1
20260508094742 7 355 0.0 0.0 0.00 0.03 0.00 80 1014.0
20260508093805 7 355 0.0 0.0 0.00 0.03 0.00 80 1014.0
20260508093305 7 355 0.0 0.0 0.00 0.03 0.00 80 1014.1
20260508092804 7 355 0.0 0.0 0.00 0.03 0.00 80 1014.1
20260508092313 7 355 0.0 0.0 0.00 0.03 0.00 80 1014.2
20260508091800 7 355 0.0 0.0 0.00 0.03 0.00 80 1014.2
20260508091254 7 355 0.0 0.0 0.00 0.03 0.00 80 1014.2
20260508090748 7 355 0.0 0.0 0.00 0.03 0.00 80 1014.2
20260508090244 7 355 0.0 3.2 0.00 0.03 0.00 80 1014.1
20260508085744 7 355 0.0 3.2 0.00 0.03 0.00 80 1014.0
20260508085244 7 355 0.0 3.2 0.00 0.03 0.00 80 1013.9
20260508084743 7 355 0.0 3.2 0.00 0.03 0.00 80 1013.8